Tracking 27079 objects as of 24-Mar-2023
HD Live streaming from Space Station
objects crossing your sky now

STARLINK-2293

Track STARLINK-2293 now!
10-day predictions
STARLINK-2293 is classified as:


NORAD ID: 47863
Int'l Code: 2021-021D
Perigee: 553.3 km
Apogee: 555.4 km
Inclination: 53.1 °
Period: 95.6 minutes
Semi major axis: 6925 km
RCS: Unknown
Launch date: March 14, 2021
Source: United States (US)
Launch site: AIR FORCE EASTERN TEST RANGE (AFETR)
Your satellite tracking list
Your tracking list is empty




NASA's NSSDC Master Catalog

Two Line Element Set (TLE):
1 47863U 21021D   23082.75414814  .00015615  00000-0  10647-2 0  9991
2 47863  53.0534  88.6134 0001511  95.4063 264.7098 15.06404521112632
Source of the keplerian elements: AFSPC